[[{"header":{"parameterUnit":"m.s-1","parameterCategory":1,"la1":30.2991,"la2":30.254,"lo1":-89.0895,"lo2":-89.0444,"dy":0.0017,"dx":0.0017,"nx":28,"ny":28,"refTime":"2026-02-07T09:00:00:Z","depth":0,"parameterNumber":2,"parameterNumberName":"U-component_of_WINDS"},"data":[0,0,0,0,0,0,0,0,0,0,0,0,0,0,0,0,0,0,0,0,0,0,0,0,0,0,0,0,0,0,0,0,0,0,0,0,0,0,0,0,0,0,0,0,0,0,0,0,0,0,0,0,0,0,0,0,0,0,0.5559,0.556,0,0.5604,0.5605,0.5605,0.5577,0.5576,0.5575,0.5573,0.562,0.5622,0.5625,0,0,0,0,0,0,0,0,0,0,0,0,0,0.5449,0.5451,0.5559,0.556,0.556,0.5604,0.5605,0.5605,0.5578,0.5576,0.5574,0.5573,0.5619,0.5622,0.5625,0,0,0,0,0,0,0,0,0,0,0,0,0,0.5496,0.5452,0.5559,0.5552,0.5551,0.5604,0.5605,0.5605,0.5578,0.5576,0.5574,0.5572,0.5618,0.5622,0.5625,0.5688,0,0,0.5637,0.5638,0,0,0,0,0,0,0,0,0.5493,0.55,0.5552,0.5552,0.5552,0.5583,0.5583,0.5633,0.5578,0.5568,0.5573,0.5571,0.5609,0.5614,0.5626,0.569,0.5692,0.5637,0.5639,0.5641,0.5642,0,0,0,0,0,0,0,0.549,0.5498,0.5577,0.5553,0.5553,0.5546,0.5551,0.5592,0.5599,0.5569,0.5567,0.5572,0.5609,0.5623,0.5627,0.5693,0.5637,0.564,0.5643,0.5644,0.5811,0.5813,0,0,0,0,0,0,0.5487,0.5495,0.5575,0.5578,0.5517,0.555,0.5555,0.5575,0.5599,0.56,0.5574,0.5571,0.5618,0.5623,0.5629,0.5705,0.5641,0.5644,0.5647,0.5809,0.5812,0.5814,0,0,0,0,0,0,0.5485,0.5495,0.5574,0.5536,0.5546,0.5554,0.5577,0.5577,0.5591,0.5603,0.5604,0.5587,0.5616,0.5624,0.5674,0.5706,0.5646,0.5649,0.5806,0.581,0.5813,0.5856,0,0,0,0,0,0,0.5482,0.5494,0.5518,0.5537,0.5548,0.5618,0.5579,0.5579,0.5598,0.5594,0.5615,0.5617,0.5615,0.5668,0.5677,0.571,0.5652,0.5803,0.5808,0.5812,0.5852,0.586,0.5868,0,0,0,0,0,0.5478,0.5528,0.5519,0.5529,0.5578,0.562,0.5626,0.5623,0.56,0.5624,0.5632,0.5616,0.5701,0.5674,0.5684,0.5718,0.5801,0.5807,0.5811,0.5848,0.5859,0.5868,0,0,0,0,0,0,0.5512,0.553,0.5521,0.5578,0.5598,0.5615,0.5645,0.5634,0.566,0.5656,0.5651,0.5656,0.5708,0.5718,0.5687,0.578,0.5747,0.5755,0.5772,0.5782,0.579,0.5787,0.5655,0,0,0,0,0,0.5526,0.5559,0.5573,0.5622,0.5632,0.5637,0.5655,0.5651,0.5671,0.5679,0.569,0.571,0.5741,0.5762,0.5791,0.5853,0.5857,0.5881,0.5889,0.5895,0.5902,0.5936,0.5947,0.583,0.583,0.583,0,0,0.5556,0.557,0.559,0.5629,0.5644,0.5678,0.5644,0.5681,0.5707,0.5685,0.5733,0.5742,0.5764,0.582,0.5846,0.583,0.5935,0.5902,0.5907,0.591,0.5943,0.5954,0.5964,0.5834,0.5833,0.5833,0,0,0.5627,0.5641,0.5684,0.5699,0.5722,0.5725,0.5735,0.5754,0.576,0.5808,0.5793,0.5823,0.5876,0.5893,0.5908,0.5987,0.5974,0.5996,0.6039,0.6072,0.6081,0.6089,0.6119,0.6129,0.6003,0.6003,0.6003,0,0.5662,0.5712,0.5708,0.5746,0.5764,0.5746,0.579,0.5805,0.5836,0.5849,0.5831,0.5898,0.5911,0.5972,0.5991,0.6004,0.6016,0.5994,0.608,0.6088,0.6096,0.6124,0.6135,0.6005,0.6005,0.6005,0.6004,0,0.5754,0.5789,0.5821,0.5852,0.5873,0.5914,0.5916,0.5939,0.5933,0.5938,0.5988,0.6003,0.6036,0.6049,0.6044,0.611,0.6099,0.6081,0.6048,0.611,0.6136,0.6147,0.6009,0.6008,0.6007,0.6007,0,0,0.5848,0.5876,0.5889,0.5903,0.5926,0.5954,0.5994,0.6026,0.6046,0.6068,0.6102,0.6148,0.6131,0.6149,0.6145,0.6174,0.6237,0.6152,0.6153,0.6169,0.6312,0.6327,0.6339,0.6228,0.623,0.6232,0.631,0,0.5923,0.5994,0.5991,0.6057,0.6091,0.6074,0.6109,0.6128,0.6134,0.6163,0.6169,0.6202,0.6177,0.6187,0.6215,0.6223,0.6266,0.6218,0.6261,0.6263,0.6257,0.6352,0.6368,0.6441,0.632,0.6322,0.6323,0,0.6019,0.6045,0.6115,0.6134,0.6148,0.618,0.6209,0.6237,0.6258,0.626,0.628,0.6272,0.6313,0.6279,0.6337,0.6304,0.6321,0.6328,0.6331,0.6336,0.6298,0.6361,0.6465,0.6476,0.6339,0.6338,0.6337,0,0.6083,0.6135,0.6183,0.6196,0.622,0.6243,0.6254,0.6273,0.6292,0.6318,0.6331,0.6361,0.6378,0.6401,0.6401,0.6376,0.646,0.6426,0.6464,0.6464,0.6483,0.6483,0.6593,0.6493,0.6493,0.6492,0.6492,0,0.6166,0.621,0.6213,0.6243,0.6292,0.6288,0.6336,0.6345,0.6362,0.6394,0.6381,0.6411,0.6409,0.644,0.644,0.6488,0.6496,0.6499,0.6499,0.6501,0.6501,0.6513,0.6509,0.6495,0.6495,0.6494,0.6494,0,0.6246,0.625,0.6302,0.632,0.6326,0.6361,0.6377,0.6406,0.6411,0.6451,0.6461,0.6468,0.6503,0.6506,0.6546,0.6547,0.6606,0.6599,0.6599,0.6598,0.6637,0.6634,0.676,0.6777,0.6665,0.6666,0.6667,0,0.63,0.6334,0.6356,0.6376,0.6389,0.6422,0.6442,0.644,0.6461,0.6488,0.6514,0.6548,0.6576,0.6633,0.6642,0.6674,0.6669,0.6711,0.6673,0.6675,0.6671,0.6669,0.6673,0.6718,0.672,0.6721,0.6722,0,0.6396,0.6396,0.6426,0.6456,0.6481,0.6505,0.6527,0.6544,0.6545,0.6569,0.6606,0.6627,0.6669,0.6704,0.6735,0.6746,0.6735,0.6733,0.6744,0.6747,0.6746,0.6748,0.662,0.673,0.673,0.6729,0.6728,0.6728,0.6466,0.6495,0.6515,0.6549,0.6566,0.6587,0.6615,0.6623,0.6654,0.6688,0.6684,0.6725,0.6746,0.6786,0.68,0.6832,0.6817,0.6833,0.6837,0.6841,0.6846,0.674,0.6837,0.6837,0.6837,0.6836,0.6836,0,0.6562,0.6574,0.6605,0.6637,0.6664,0.665,0.6674,0.6697,0.6733,0.6753,0.6781,0.6823,0.6856,0.6868,0.6901,0.6924,0.692,0.6933,0.6932,0.6935,0.6856,0.6844,0.6936,0.6936,0.6936,0.6936,0.6936,0.6936,0.6615,0.6664,0.6667,0.6725,0.6737,0.6776,0.6791,0.6811,0.6827,0.6875,0.6903,0.691,0.6928,0.6962,0.6992,0.6995,0.7008,0.7024,0.7024,0.695,0.694,0.6931,0.692,0.7026,0.7027,0.7101,0.7102,0.7102]},{"header":{"parameterUnit":"m.s-1","parameterCategory":1,"la1":30.2991,"la2":30.254,"lo1":-89.0895,"lo2":-89.0444,"dy":0.0017,"dx":0.0017,"nx":28,"ny":28,"refTime":"2026-02-07T09:00:00:Z","depth":0,"parameterNumber":3,"parameterNumberName":"V-component_of_WINDS"},"data":[0,0,0,0,0,0,0,0,0,0,0,0,0,0,0,0,0,0,0,0,0,0,0,0,0,0,0,0,0,0,0,0,0,0,0,0,0,0,0,0,0,0,0,0,0,0,0,0,0,0,0,0,0,0,0,0,0,0,1.358,1.3581,0,1.3653,1.3654,1.3655,1.364,1.3638,1.3637,1.3636,1.3709,1.3713,1.3716,0,0,0,0,0,0,0,0,0,0,0,0,0,1.3427,1.343,1.358,1.3581,1.3582,1.3653,1.3654,1.3655,1.364,1.3638,1.3637,1.3635,1.3708,1.3712,1.3716,0,0,0,0,0,0,0,0,0,0,0,0,0,1.3496,1.343,1.358,1.3583,1.3584,1.3653,1.3654,1.3655,1.364,1.3638,1.3636,1.3634,1.3707,1.3712,1.3717,1.3787,0,0,1.3731,1.3733,0,0,0,0,0,0,0,0,1.3492,1.3501,1.3581,1.3583,1.3584,1.3635,1.3627,1.3699,1.3641,1.3619,1.3636,1.3633,1.3686,1.3693,1.3711,1.379,1.3793,1.3732,1.3735,1.3737,1.3738,0,0,0,0,0,0,0,1.3487,1.3498,1.3609,1.3583,1.3584,1.358,1.3588,1.3641,1.3663,1.362,1.362,1.3629,1.3687,1.3706,1.3712,1.3794,1.3732,1.3736,1.3739,1.3741,1.3937,1.3939,0,0,0,0,0,0,1.3481,1.3494,1.3607,1.3611,1.3532,1.3585,1.3593,1.3621,1.3662,1.3667,1.363,1.3628,1.3699,1.3707,1.3715,1.3802,1.3737,1.3741,1.3744,1.3935,1.3938,1.394,0,0,0,0,0,0,1.3478,1.3491,1.3604,1.3553,1.3566,1.359,1.3621,1.3623,1.3643,1.367,1.3673,1.3646,1.3698,1.3708,1.377,1.3804,1.3743,1.3748,1.3932,1.3936,1.3939,1.3975,0,0,0,0,0,0,1.3474,1.349,1.3517,1.3553,1.3569,1.3657,1.3623,1.3626,1.3651,1.3649,1.3686,1.369,1.3697,1.3762,1.3774,1.381,1.3752,1.3929,1.3934,1.3938,1.397,1.3979,1.3986,0,0,0,0,0,1.3468,1.3524,1.3519,1.3532,1.3604,1.3659,1.3668,1.3676,1.3654,1.3682,1.3699,1.3689,1.3798,1.3769,1.3782,1.3819,1.3927,1.3932,1.3938,1.3967,1.3977,1.3986,0,0,0,0,0,0,1.349,1.3528,1.3523,1.3592,1.3623,1.3656,1.3691,1.3686,1.3723,1.3719,1.3726,1.3734,1.3797,1.3814,1.3781,1.389,1.386,1.3868,1.3877,1.3887,1.3895,1.389,1.3756,0,0,0,0,0,1.3503,1.3546,1.3576,1.3634,1.365,1.3668,1.3692,1.3695,1.3727,1.374,1.3762,1.3793,1.3834,1.3861,1.3901,1.3972,1.3981,1.4004,1.4012,1.4018,1.4026,1.4067,1.4078,1.3957,1.3957,1.3957,0,0,1.353,1.3556,1.3583,1.3639,1.3663,1.3707,1.3679,1.3726,1.3759,1.3747,1.3807,1.3824,1.3859,1.3926,1.3957,1.3942,1.4061,1.4025,1.403,1.4034,1.4074,1.4085,1.4095,1.3961,1.396,1.396,0,0,1.3603,1.3626,1.3678,1.3703,1.374,1.3752,1.3764,1.3799,1.381,1.3871,1.3863,1.3902,1.3973,1.3999,1.4021,1.4105,1.4097,1.4117,1.4158,1.4198,1.4208,1.4217,1.4248,1.4259,1.4124,1.4124,1.4124,0,1.3632,1.3698,1.3705,1.3754,1.3779,1.3771,1.3824,1.3847,1.3895,1.3913,1.3896,1.3986,1.4009,1.4083,1.4104,1.4121,1.4137,1.4114,1.4206,1.4215,1.4223,1.4253,1.4265,1.4127,1.4126,1.4126,1.4126,0,1.3733,1.3779,1.3816,1.3864,1.3893,1.3944,1.3958,1.3987,1.3988,1.4002,1.4064,1.4091,1.4137,1.4155,1.4155,1.423,1.422,1.4204,1.4174,1.4237,1.4265,1.4277,1.413,1.4129,1.4128,1.4128,0,0,1.3822,1.3873,1.3887,1.3909,1.395,1.3986,1.4036,1.4081,1.4107,1.414,1.4183,1.4244,1.4231,1.4256,1.4259,1.4294,1.4361,1.4275,1.4276,1.4292,1.4447,1.446,1.4474,1.4356,1.4358,1.436,1.4445,0,1.3899,1.3989,1.3997,1.4077,1.4121,1.4114,1.4158,1.4188,1.4202,1.4241,1.4256,1.43,1.4278,1.4294,1.4328,1.4346,1.4393,1.434,1.4397,1.4399,1.4391,1.4488,1.4502,1.4581,1.4456,1.4458,1.4459,0,1.4002,1.404,1.4125,1.4161,1.418,1.4219,1.4262,1.4299,1.4333,1.4341,1.4371,1.437,1.4422,1.4388,1.4462,1.4425,1.4449,1.4462,1.4465,1.4472,1.4435,1.45,1.4606,1.4619,1.4477,1.4475,1.4474,0,1.4061,1.4133,1.4194,1.4212,1.4256,1.4284,1.4303,1.4335,1.4362,1.44,1.4418,1.4461,1.4484,1.4518,1.4529,1.4503,1.4602,1.4569,1.4612,1.4611,1.4634,1.4633,1.4748,1.4646,1.4646,1.4646,1.4646,0,1.4148,1.4201,1.4221,1.4259,1.4318,1.4326,1.4385,1.4402,1.4431,1.4472,1.4468,1.4507,1.4518,1.4559,1.4567,1.4628,1.4638,1.4647,1.4649,1.4648,1.4648,1.4666,1.4661,1.4649,1.4648,1.4648,1.4647,0,1.4224,1.424,1.4306,1.4342,1.4352,1.4394,1.4425,1.4462,1.4475,1.4528,1.454,1.4562,1.461,1.4624,1.4681,1.4687,1.4759,1.4755,1.4748,1.4748,1.4791,1.4788,1.4923,1.4942,1.4826,1.4827,1.4828,0,1.428,1.4321,1.4361,1.4389,1.441,1.4454,1.4482,1.4492,1.4522,1.4564,1.4596,1.4644,1.4682,1.476,1.4781,1.4825,1.4823,1.4868,1.483,1.4829,1.4827,1.4825,1.483,1.4875,1.4877,1.4878,1.4878,0,1.4377,1.4383,1.4425,1.4469,1.4503,1.4538,1.4572,1.4595,1.461,1.4643,1.4693,1.4723,1.4782,1.483,1.4875,1.4895,1.489,1.489,1.4902,1.4903,1.4899,1.4904,1.4769,1.4887,1.4886,1.4886,1.4885,1.4885,1.4447,1.4483,1.4518,1.4565,1.4591,1.4623,1.466,1.4679,1.472,1.477,1.4773,1.4827,1.4861,1.4922,1.4944,1.4987,1.4974,1.4991,1.4996,1.5001,1.5006,1.489,1.4995,1.4995,1.4994,1.4994,1.4994,0,1.4546,1.4568,1.4611,1.4659,1.4696,1.4687,1.4725,1.4756,1.4804,1.4836,1.4875,1.4933,1.4979,1.5004,1.5051,1.5081,1.508,1.5093,1.5092,1.5097,1.5014,1.4999,1.5093,1.5093,1.5093,1.5093,1.5093,1.5093,1.4602,1.4664,1.4675,1.475,1.4772,1.4826,1.4848,1.4878,1.4904,1.4969,1.5008,1.5024,1.5054,1.5103,1.5146,1.5152,1.517,1.5186,1.5191,1.5113,1.5103,1.5093,1.5079,1.5189,1.5189,1.5271,1.5271,1.5272]}]]